Time,TemperatureF,DewpointF,PressureIn,WindDirection,WindDirectionDegrees,WindSpeedMPH,WindSpeedGustMPH,Humidity,HourlyPrecipIn,Conditions,Clouds,dailyrainin,SoftwareType,DateUTC
2013-04-27 00:01:00,43.9,36.1,-100.00,NNE,14,0.0,0.0,74,0.00,,,0.00,meteohub,2013-04-27 04:01:00,
2013-04-27 00:02:00,44.1,36.7,-100.00,NNE,14,0.0,0.0,75,0.00,,,0.00,meteohub,2013-04-27 04:02:00,
2013-04-27 00:03:00,44.2,36.9,-100.00,NNE,14,0.0,0.0,75,0.00,,,0.00,meteohub,2013-04-27 04:03:00,
2013-04-27 00:04:00,43.9,36.5,-100.00,NNE,14,0.0,0.0,75,0.00,,,0.00,meteohub,2013-04-27 04:04:00,
2013-04-27 00:06:00,44.1,36.7,-100.00,NNE,14,0.0,0.0,75,0.00,,,0.00,meteohub,2013-04-27 04:06:00,
2013-04-27 00:12:00,43.5,36.1,-100.00,NNE,14,0.0,0.0,75,0.00,,,0.00,meteohub,2013-04-27 04:12:00,
2013-04-27 00:17:00,42.6,35.6,-100.00,NNE,14,0.0,0.0,76,0.00,,,0.00,meteohub,2013-04-27 04:17:00,
2013-04-27 00:22:00,43.9,37.2,-100.00,NNE,14,0.0,0.0,77,0.00,,,0.00,meteohub,2013-04-27 04:22:00,
2013-04-27 00:27:00,43.0,36.3,-100.00,NNE,14,0.0,0.0,77,0.00,,,0.00,meteohub,2013-04-27 04:27:00,
2013-04-27 00:32:00,42.6,36.3,-100.00,NNE,14,0.0,0.0,78,0.00,,,0.00,meteohub,2013-04-27 04:32:00,
2013-04-27 00:37:00,42.4,36.1,-100.00,NNE,14,0.0,0.0,78,0.00,,,0.00,meteohub,2013-04-27 04:37:00,
2013-04-27 00:42:00,43.2,37.0,-100.00,NNE,14,0.0,0.0,79,0.00,,,0.00,meteohub,2013-04-27 04:42:00,
2013-04-27 00:47:00,41.9,35.8,-100.00,NNE,14,0.0,0.0,79,0.00,,,0.00,meteohub,2013-04-27 04:47:00,
2013-04-27 00:52:00,43.0,37.2,-100.00,NNE,14,0.0,0.0,80,0.00,,,0.00,meteohub,2013-04-27 04:52:00,
2013-04-27 00:57:00,42.6,37.2,-100.00,NNE,14,0.0,0.0,81,0.00,,,0.00,meteohub,2013-04-27 04:57:00,
2013-04-27 01:02:00,41.9,36.5,-100.00,NNE,14,0.0,0.0,81,0.00,,,0.00,meteohub,2013-04-27 05:02:00,
2013-04-27 01:07:00,42.3,36.9,-100.00,NNE,14,0.0,0.0,81,0.00,,,0.00,meteohub,2013-04-27 05:07:00,
2013-04-27 01:12:00,42.3,36.9,-100.00,NNE,14,0.0,0.0,81,0.00,,,0.00,meteohub,2013-04-27 05:12:00,
2013-04-27 01:18:00,42.6,37.2,-100.00,NNE,14,0.0,0.0,81,0.00,,,0.00,meteohub,2013-04-27 05:18:00,
2013-04-27 01:23:00,42.4,36.7,-100.00,NNE,14,0.0,0.0,80,0.00,,,0.00,meteohub,2013-04-27 05:23:00,
2013-04-27 01:28:00,42.3,36.5,-100.00,NNE,14,0.0,0.0,80,0.00,,,0.00,meteohub,2013-04-27 05:28:00,
2013-04-27 01:33:00,42.4,37.0,-100.00,NNE,14,0.0,0.0,81,0.00,,,0.00,meteohub,2013-04-27 05:33:00,
2013-04-27 01:38:00,42.6,38.1,-100.00,NNE,14,0.0,0.0,84,0.00,,,0.00,meteohub,2013-04-27 05:38:00,
2013-04-27 01:43:00,43.9,39.9,-100.00,NNE,14,0.0,0.0,86,0.00,,,0.00,meteohub,2013-04-27 05:43:00,
2013-04-27 01:48:00,43.0,39.7,-100.00,NNE,14,0.0,0.0,88,0.00,,,0.00,meteohub,2013-04-27 05:48:00,
2013-04-27 01:53:00,44.4,41.4,-100.00,NNE,14,0.0,0.0,89,0.00,,,0.00,meteohub,2013-04-27 05:53:00,
2013-04-27 01:58:00,45.0,42.3,-100.00,NNE,14,0.0,0.0,90,0.00,,,0.00,meteohub,2013-04-27 05:58:00,
2013-04-27 02:03:00,45.0,42.4,-100.00,NNE,14,0.0,0.0,91,0.00,,,0.00,meteohub,2013-04-27 06:03:00,
2013-04-27 02:08:00,44.8,42.6,-100.00,NNE,14,0.0,0.0,92,0.00,,,0.00,meteohub,2013-04-27 06:08:00,
2013-04-27 02:13:00,45.3,44.1,-100.00,NNE,14,0.0,0.0,95,0.00,,,0.00,meteohub,2013-04-27 06:13:00,
2013-04-27 02:18:00,45.0,43.3,-100.00,NNE,14,0.0,0.0,94,0.00,,,0.00,meteohub,2013-04-27 06:18:00,
2013-04-27 02:23:00,44.4,42.4,-100.00,NNE,14,0.0,0.0,93,0.00,,,0.00,meteohub,2013-04-27 06:23:00,
2013-04-27 02:28:00,44.1,42.1,-100.00,NNE,14,0.0,0.0,93,0.00,,,0.00,meteohub,2013-04-27 06:28:00,
2013-04-27 02:33:00,43.5,41.4,-100.00,NNE,14,0.0,0.0,92,0.00,,,0.00,meteohub,2013-04-27 06:33:00,
2013-04-27 02:38:00,42.6,40.5,-100.00,NNE,14,0.0,0.0,92,0.00,,,0.00,meteohub,2013-04-27 06:38:00,
2013-04-27 02:43:00,41.9,39.7,-100.00,NNE,14,0.0,0.0,92,0.00,,,0.00,meteohub,2013-04-27 06:43:00,
2013-04-27 02:49:00,41.4,39.0,-100.00,NNE,14,0.0,0.0,91,0.00,,,0.00,meteohub,2013-04-27 06:49:00,
2013-04-27 02:54:00,41.4,38.7,-100.00,NNE,14,0.0,0.0,90,0.00,,,0.00,meteohub,2013-04-27 06:54:00,
2013-04-27 02:59:00,41.7,38.7,-100.00,NNE,14,0.0,0.0,89,0.00,,,0.00,meteohub,2013-04-27 06:59:00,
2013-04-27 03:04:00,41.7,38.5,-100.00,NNE,14,0.0,0.0,88,0.00,,,0.00,meteohub,2013-04-27 07:04:00,
2013-04-27 03:09:00,40.5,36.9,-100.00,NNE,14,0.0,0.0,87,0.00,,,0.00,meteohub,2013-04-27 07:09:00,
2013-04-27 03:14:00,39.7,36.1,-100.00,NNE,14,0.0,0.0,87,0.00,,,0.00,meteohub,2013-04-27 07:14:00,
2013-04-27 03:19:00,40.5,36.9,-100.00,NNE,14,0.0,0.0,87,0.00,,,0.00,meteohub,2013-04-27 07:19:00,
2013-04-27 03:24:00,40.6,36.9,-100.00,NNE,14,0.0,0.0,86,0.00,,,0.00,meteohub,2013-04-27 07:24:00,
2013-04-27 03:29:00,39.9,36.1,-100.00,NNE,14,0.0,0.0,86,0.00,,,0.00,meteohub,2013-04-27 07:29:00,
2013-04-27 03:34:00,40.5,36.7,-100.00,NNE,14,0.0,0.0,86,0.00,,,0.00,meteohub,2013-04-27 07:34:00,
2013-04-27 03:39:00,40.3,36.5,-100.00,NNE,14,0.0,0.0,86,0.00,,,0.00,meteohub,2013-04-27 07:39:00,
2013-04-27 03:44:00,38.8,35.1,-100.00,NNE,14,0.0,0.0,86,0.00,,,0.00,meteohub,2013-04-27 07:44:00,
2013-04-27 03:49:00,38.7,35.1,-100.00,NNE,14,0.0,0.0,87,0.00,,,0.00,meteohub,2013-04-27 07:49:00,
2013-04-27 03:54:00,39.4,35.8,-100.00,NNE,14,0.0,0.0,87,0.00,,,0.00,meteohub,2013-04-27 07:54:00,
2013-04-27 03:59:00,39.4,35.8,-100.00,NNE,14,0.0,0.0,87,0.00,,,0.00,meteohub,2013-04-27 07:59:00,
2013-04-27 04:04:00,39.4,35.8,-100.00,NNE,14,0.0,0.0,87,0.00,,,0.00,meteohub,2013-04-27 08:04:00,
2013-04-27 04:09:00,38.8,35.2,-100.00,NNE,14,0.0,0.0,87,0.00,,,0.00,meteohub,2013-04-27 08:09:00,
2013-04-27 04:15:00,39.4,35.8,-100.00,NNE,14,0.0,0.0,87,0.00,,,0.00,meteohub,2013-04-27 08:15:00,
2013-04-27 04:20:00,38.5,34.9,-100.00,NNE,14,0.0,0.0,87,0.00,,,0.00,meteohub,2013-04-27 08:20:00,
2013-04-27 04:25:00,38.7,35.1,-100.00,NNE,14,0.0,0.0,87,0.00,,,0.00,meteohub,2013-04-27 08:25:00,
2013-04-27 04:30:00,38.8,35.2,-100.00,NNE,14,0.0,0.0,87,0.00,,,0.00,meteohub,2013-04-27 08:30:00,
2013-04-27 04:35:00,37.8,34.2,-100.00,NNE,14,0.0,0.0,87,0.00,,,0.00,meteohub,2013-04-27 08:35:00,
2013-04-27 04:40:00,37.8,34.2,-100.00,NNE,14,0.0,0.0,87,0.00,,,0.00,meteohub,2013-04-27 08:40:00,
2013-04-27 04:45:00,37.8,34.5,-100.00,NNE,14,0.0,0.0,88,0.00,,,0.00,meteohub,2013-04-27 08:45:00,
2013-04-27 04:50:00,37.6,34.7,-100.00,NNE,14,0.0,0.0,89,0.00,,,0.00,meteohub,2013-04-27 08:50:00,
2013-04-27 04:55:00,37.8,35.1,-100.00,NNE,14,0.0,0.0,90,0.00,,,0.00,meteohub,2013-04-27 08:55:00,
2013-04-27 05:00:00,37.8,35.1,-100.00,NNE,14,0.0,0.0,90,0.00,,,0.00,meteohub,2013-04-27 09:00:00,
2013-04-27 05:05:00,37.6,34.7,-100.00,NNE,14,0.0,0.0,89,0.00,,,0.00,meteohub,2013-04-27 09:05:00,
2013-04-27 05:10:00,38.1,35.2,-100.00,NNE,14,0.0,0.0,89,0.00,,,0.00,meteohub,2013-04-27 09:10:00,
2013-04-27 05:15:00,37.8,34.9,-100.00,NNE,14,0.0,0.0,89,0.00,,,0.00,meteohub,2013-04-27 09:15:00,
2013-04-27 05:20:00,37.8,34.9,-100.00,NNE,14,0.0,0.0,89,0.00,,,0.00,meteohub,2013-04-27 09:20:00,
2013-04-27 05:25:00,38.5,35.6,-100.00,NNE,14,0.0,0.0,89,0.00,,,0.00,meteohub,2013-04-27 09:25:00,
2013-04-27 05:31:00,37.0,34.2,-100.00,NNE,14,0.0,0.0,89,0.00,,,0.00,meteohub,2013-04-27 09:31:00,
2013-04-27 05:36:00,37.6,34.7,-100.00,NNE,14,0.0,0.0,89,0.00,,,0.00,meteohub,2013-04-27 09:36:00,
2013-04-27 05:41:00,37.6,34.7,-100.00,NNE,14,0.0,0.0,89,0.00,,,0.00,meteohub,2013-04-27 09:41:00,
2013-04-27 05:46:00,37.0,34.2,-100.00,NNE,14,0.0,0.0,89,0.00,,,0.00,meteohub,2013-04-27 09:46:00,
2013-04-27 05:51:00,37.6,34.9,-100.00,NNE,14,0.0,0.0,90,0.00,,,0.00,meteohub,2013-04-27 09:51:00,
2013-04-27 05:56:00,38.5,35.6,-100.00,NNE,14,0.0,0.0,89,0.00,,,0.00,meteohub,2013-04-27 09:56:00,
2013-04-27 06:01:00,38.1,35.2,-100.00,NNE,14,0.0,0.0,89,0.00,,,0.00,meteohub,2013-04-27 10:01:00,
2013-04-27 06:06:00,37.4,34.7,-100.00,NNE,14,0.0,0.0,90,0.00,,,0.00,meteohub,2013-04-27 10:06:00,
2013-04-27 06:11:00,37.6,34.9,-100.00,NNE,14,0.0,0.0,90,0.00,,,0.00,meteohub,2013-04-27 10:11:00,
2013-04-27 06:16:00,37.8,35.1,-100.00,NNE,14,0.0,0.0,90,0.00,,,0.00,meteohub,2013-04-27 10:16:00,
2013-04-27 06:21:00,38.1,35.4,-100.00,NNE,14,0.0,0.0,90,0.00,,,0.00,meteohub,2013-04-27 10:21:00,
2013-04-27 06:26:00,37.8,35.1,-100.00,NNE,14,0.0,0.0,90,0.00,,,0.00,meteohub,2013-04-27 10:26:00,
2013-04-27 06:31:00,37.6,34.9,-100.00,NNE,14,0.0,0.0,90,0.00,,,0.00,meteohub,2013-04-27 10:31:00,
2013-04-27 06:36:00,37.6,34.9,-100.00,NNE,14,0.0,0.0,90,0.00,,,0.00,meteohub,2013-04-27 10:36:00,
2013-04-27 06:41:00,38.7,36.0,-100.00,NNE,14,0.0,0.0,90,0.00,,,0.00,meteohub,2013-04-27 10:41:00,
2013-04-27 06:46:00,38.7,36.0,-100.00,NNE,14,0.0,0.0,90,0.00,,,0.00,meteohub,2013-04-27 10:46:00,
2013-04-27 06:51:00,39.0,36.1,-100.00,NNE,14,0.0,0.0,89,0.00,,,0.00,meteohub,2013-04-27 10:51:00,
2013-04-27 06:56:00,37.8,35.1,-100.00,NNE,14,0.0,0.0,90,0.00,,,0.00,meteohub,2013-04-27 10:56:00,
2013-04-27 07:02:00,38.5,35.8,-100.00,NNE,14,0.0,0.0,90,0.00,,,0.00,meteohub,2013-04-27 11:02:00,
2013-04-27 07:07:00,37.8,35.1,-100.00,NNE,14,0.0,0.0,90,0.00,,,0.00,meteohub,2013-04-27 11:07:00,
2013-04-27 07:12:00,38.5,35.8,-100.00,NNE,14,0.0,0.0,90,0.00,,,0.00,meteohub,2013-04-27 11:12:00,
2013-04-27 07:17:00,38.8,36.1,-100.00,NNE,14,0.0,0.0,90,0.00,,,0.00,meteohub,2013-04-27 11:17:00,
2013-04-27 07:22:00,39.4,37.2,-100.00,NNE,14,0.0,0.0,92,0.00,,,0.00,meteohub,2013-04-27 11:22:00,
2013-04-27 07:27:00,41.4,39.7,-100.00,NNE,14,0.0,0.0,94,0.00,,,0.00,meteohub,2013-04-27 11:27:00,
2013-04-27 07:32:00,41.9,40.6,-100.00,NNE,14,0.0,0.0,95,0.00,,,0.00,meteohub,2013-04-27 11:32:00,
2013-04-27 07:37:00,43.0,41.7,-100.00,NNE,14,0.0,0.0,95,0.00,,,0.00,meteohub,2013-04-27 11:37:00,
2013-04-27 07:42:00,44.4,43.2,-100.00,NNE,14,0.0,0.0,95,0.00,,,0.00,meteohub,2013-04-27 11:42:00,
2013-04-27 07:47:00,43.0,41.9,-100.00,NNE,19,1.0,0.0,96,0.00,,,0.00,meteohub,2013-04-27 11:47:00,
2013-04-27 07:52:00,43.0,41.9,-100.00,NNE,19,0.0,2.0,96,0.00,,,0.00,meteohub,2013-04-27 11:52:00,
2013-04-27 07:57:00,41.9,40.8,-100.00,NNE,18,0.0,2.0,96,0.00,,,0.00,meteohub,2013-04-27 11:57:00,
2013-04-27 08:02:00,41.2,39.9,-100.00,ENE,57,2.0,2.0,95,0.00,,,0.00,meteohub,2013-04-27 12:02:00,
2013-04-27 08:07:00,41.9,40.6,-100.00,ENE,68,0.0,5.0,95,0.00,,,0.00,meteohub,2013-04-27 12:07:00,
2013-04-27 08:12:00,42.3,40.6,-100.00,ENE,68,0.0,5.0,94,0.00,,,0.00,meteohub,2013-04-27 12:12:00,
2013-04-27 08:17:00,42.3,40.1,-100.00,NNE,12,0.0,6.0,92,0.00,,,0.00,meteohub,2013-04-27 12:17:00,
2013-04-27 08:22:00,43.9,40.8,-100.00,North,2,0.0,6.0,89,0.00,,,0.00,meteohub,2013-04-27 12:22:00,
2013-04-27 08:27:00,43.2,39.0,-100.00,ESE,111,5.0,6.0,85,0.00,,,0.00,meteohub,2013-04-27 12:27:00,
2013-04-27 08:32:00,43.2,38.3,-100.00,ENE,71,0.0,6.0,83,0.00,,,0.00,meteohub,2013-04-27 12:32:00,
2013-04-27 08:37:00,44.4,38.7,-100.00,East,95,4.0,6.0,80,0.00,,,0.00,meteohub,2013-04-27 12:37:00,
2013-04-27 08:42:00,43.5,37.0,-100.00,NE,45,4.0,6.0,78,0.00,,,0.00,meteohub,2013-04-27 12:42:00,
2013-04-27 08:47:00,45.0,37.9,-100.00,ENE,77,0.0,8.0,76,0.00,,,0.00,meteohub,2013-04-27 12:47:00,
2013-04-27 08:52:00,45.7,38.5,-100.00,ENE,68,0.0,8.0,76,0.00,,,0.00,meteohub,2013-04-27 12:52:00,
2013-04-27 08:57:00,46.2,38.7,-100.00,ESE,111,5.0,8.0,75,0.00,,,0.00,meteohub,2013-04-27 12:57:00,
2013-04-27 09:02:00,46.0,38.5,-100.00,North,358,4.0,9.0,75,0.00,,,0.00,meteohub,2013-04-27 13:02:00,
2013-04-27 09:07:00,46.6,38.7,-100.00,ESE,109,0.0,9.0,74,0.00,,,0.00,meteohub,2013-04-27 13:07:00,
2013-04-27 09:12:00,46.8,38.8,-100.00,NNE,33,0.0,9.0,74,0.00,,,0.00,meteohub,2013-04-27 13:12:00,
2013-04-27 09:17:00,46.8,38.5,-100.00,ESE,115,0.0,7.0,73,0.00,,,0.00,meteohub,2013-04-27 13:17:00,
2013-04-27 09:22:00,47.8,39.2,-100.00,NE,45,4.0,7.0,72,0.00,,,0.00,meteohub,2013-04-27 13:22:00,
2013-04-27 09:27:00,47.3,37.9,-100.00,East,84,0.0,7.0,70,0.00,,,0.00,meteohub,2013-04-27 13:27:00,
2013-04-27 09:32:00,47.7,37.9,-100.00,ENE,67,0.0,7.0,69,0.00,,,0.00,meteohub,2013-04-27 13:32:00,
2013-04-27 09:37:00,48.4,37.9,-100.00,NE,36,0.0,7.0,67,0.00,,,0.00,meteohub,2013-04-27 13:37:00,
2013-04-27 09:42:00,48.6,37.4,-100.00,NNE,16,0.0,7.0,65,0.00,,,0.00,meteohub,2013-04-27 13:42:00,
2013-04-27 09:48:00,49.6,37.9,-100.00,NNE,21,0.0,5.0,64,0.00,,,0.00,meteohub,2013-04-27 13:48:00,
2013-04-27 09:54:00,50.5,37.9,-100.00,NNE,23,4.0,8.0,62,0.00,,,0.00,meteohub,2013-04-27 13:54:00,
2013-04-27 09:59:00,51.1,38.1,-100.00,ESE,108,1.0,8.0,61,0.00,,,0.00,meteohub,2013-04-27 13:59:00,
2013-04-27 10:04:00,51.3,36.5,-100.00,SE,130,0.0,8.0,57,0.00,,,0.00,meteohub,2013-04-27 14:04:00,
2013-04-27 10:09:00,50.7,36.0,-100.00,SSE,161,2.0,8.0,57,0.00,,,0.00,meteohub,2013-04-27 14:09:00,
2013-04-27 10:14:00,52.0,36.3,-100.00,SSE,163,0.0,6.0,55,0.00,,,0.00,meteohub,2013-04-27 14:14:00,
2013-04-27 10:19:00,52.0,36.3,-100.00,SE,132,0.0,4.0,55,0.00,,,0.00,meteohub,2013-04-27 14:19:00,
2013-04-27 10:24:00,53.1,36.3,-100.00,SE,132,0.0,4.0,53,0.00,,,0.00,meteohub,2013-04-27 14:24:00,
2013-04-27 10:29:00,53.6,36.9,-100.00,SSE,150,1.0,3.0,53,0.00,,,0.00,meteohub,2013-04-27 14:29:00,
2013-04-27 10:34:00,53.4,35.2,-100.00,SW,215,2.0,6.0,50,0.00,,,0.00,meteohub,2013-04-27 14:34:00,
2013-04-27 10:39:00,54.5,36.3,-100.00,West,275,0.0,6.0,50,0.00,,,0.00,meteohub,2013-04-27 14:39:00,
2013-04-27 10:44:00,53.4,35.8,-100.00,NNE,33,0.0,6.0,51,0.00,,,0.00,meteohub,2013-04-27 14:44:00,
2013-04-27 10:49:00,54.5,36.7,-100.00,WSW,239,2.0,6.0,51,0.00,,,0.00,meteohub,2013-04-27 14:49:00,
2013-04-27 10:55:00,54.5,35.2,-100.00,South,185,0.0,5.0,48,0.00,,,0.00,meteohub,2013-04-27 14:55:00,
2013-04-27 11:00:00,53.6,35.4,-100.00,North,7,0.0,5.0,50,0.00,,,0.00,meteohub,2013-04-27 15:00:00,
2013-04-27 11:05:00,55.0,35.8,-100.00,South,187,2.0,6.0,48,0.00,,,0.00,meteohub,2013-04-27 15:05:00,
2013-04-27 11:10:00,56.3,36.3,-100.00,SE,143,0.0,6.0,47,0.00,,,0.00,meteohub,2013-04-27 15:10:00,
2013-04-27 11:15:00,56.3,36.3,-100.00,SSW,202,2.0,6.0,47,0.00,,,0.00,meteohub,2013-04-27 15:15:00,
2013-04-27 11:20:00,55.8,34.7,-100.00,SSE,160,0.0,6.0,45,0.00,,,0.00,meteohub,2013-04-27 15:20:00,
2013-04-27 11:25:00,56.1,35.1,-100.00,WNW,303,2.0,5.0,45,0.00,,,0.00,meteohub,2013-04-27 15:25:00,
2013-04-27 11:30:00,57.4,36.7,-100.00,West,268,0.0,6.0,46,0.00,,,0.00,meteohub,2013-04-27 15:30:00,
2013-04-27 11:35:00,57.2,37.2,-100.00,NW,324,0.0,9.0,47,0.00,,,0.00,meteohub,2013-04-27 15:35:00,
2013-04-27 11:40:00,56.8,35.8,-100.00,NE,39,0.0,9.0,45,0.00,,,0.00,meteohub,2013-04-27 15:40:00,
2013-04-27 11:45:00,57.7,36.5,-100.00,NE,39,0.0,9.0,45,0.00,,,0.00,meteohub,2013-04-27 15:45:00,
2013-04-27 11:50:00,57.2,35.4,-100.00,WSW,239,0.0,4.0,44,0.00,,,0.00,meteohub,2013-04-27 15:50:00,
2013-04-27 11:55:00,57.7,36.5,-100.00,NNE,33,0.0,5.0,45,0.00,,,0.00,meteohub,2013-04-27 15:55:00,
2013-04-27 12:00:00,57.7,34.9,-100.00,South,178,2.0,6.0,42,0.00,,,0.00,meteohub,2013-04-27 16:00:00,
2013-04-27 12:05:00,57.9,33.8,-100.00,West,264,0.0,8.0,40,0.00,,,0.00,meteohub,2013-04-27 16:05:00,
2013-04-27 12:10:00,59.0,34.7,-100.00,West,277,4.0,8.0,40,0.00,,,0.00,meteohub,2013-04-27 16:10:00,
2013-04-27 12:15:00,57.9,34.9,-100.00,West,270,2.0,8.0,42,0.00,,,0.00,meteohub,2013-04-27 16:15:00,
2013-04-27 12:20:00,57.9,34.9,-100.00,West,264,0.0,8.0,42,0.00,,,0.00,meteohub,2013-04-27 16:20:00,
2013-04-27 12:26:00,59.5,35.8,-100.00,SSE,163,0.0,7.0,41,0.00,,,0.00,meteohub,2013-04-27 16:26:00,
2013-04-27 12:31:00,59.4,35.6,-100.00,SSE,163,0.0,7.0,41,0.00,,,0.00,meteohub,2013-04-27 16:31:00,
2013-04-27 12:36:00,60.3,34.5,-100.00,SSE,163,0.0,5.0,38,0.00,,,0.00,meteohub,2013-04-27 16:36:00,
2013-04-27 12:41:00,60.4,36.7,-100.00,SE,133,5.0,5.0,41,0.00,,,0.00,meteohub,2013-04-27 16:41:00,
2013-04-27 12:46:00,60.3,35.2,-100.00,NE,36,2.0,5.0,39,0.00,,,0.00,meteohub,2013-04-27 16:46:00,
2013-04-27 12:51:00,60.4,34.7,-100.00,South,185,0.0,5.0,38,0.00,,,0.00,meteohub,2013-04-27 16:51:00,
2013-04-27 12:56:00,59.9,34.9,-100.00,South,185,0.0,5.0,39,0.00,,,0.00,meteohub,2013-04-27 16:56:00,
2013-04-27 13:01:00,60.3,35.2,-100.00,NNW,334,3.0,4.0,39,0.00,,,0.00,meteohub,2013-04-27 17:01:00,
2013-04-27 13:06:00,60.4,35.4,-100.00,WSW,246,0.0,5.0,39,0.00,,,0.00,meteohub,2013-04-27 17:06:00,
2013-04-27 13:11:00,59.5,32.5,-100.00,WSW,244,0.0,5.0,36,0.00,,,0.00,meteohub,2013-04-27 17:11:00,
2013-04-27 13:16:00,60.3,34.5,-100.00,NE,49,0.0,5.0,38,0.00,,,0.00,meteohub,2013-04-27 17:16:00,
2013-04-27 13:21:00,60.4,32.7,-100.00,SE,139,1.0,5.0,35,0.00,,,0.00,meteohub,2013-04-27 17:21:00,
2013-04-27 13:26:00,61.0,33.8,-100.00,SE,139,0.0,6.0,36,0.00,,,0.00,meteohub,2013-04-27 17:26:00,
2013-04-27 13:31:00,61.3,35.6,-100.00,NW,326,0.0,6.0,38,0.00,,,0.00,meteohub,2013-04-27 17:31:00,
2013-04-27 13:36:00,62.4,36.5,-100.00,SSW,199,1.0,6.0,38,0.00,,,0.00,meteohub,2013-04-27 17:36:00,
2013-04-27 13:41:00,62.8,35.4,-100.00,East,95,1.0,6.0,36,0.00,,,0.00,meteohub,2013-04-27 17:41:00,
2013-04-27 13:46:00,63.3,34.5,-100.00,SW,227,0.0,6.0,34,0.00,,,0.00,meteohub,2013-04-27 17:46:00,
2013-04-27 13:52:00,64.8,35.8,-100.00,SSE,167,0.0,6.0,34,0.00,,,0.00,meteohub,2013-04-27 17:52:00,
2013-04-27 13:57:00,63.9,34.9,-100.00,SSE,167,0.0,6.0,34,0.00,,,0.00,meteohub,2013-04-27 17:57:00,
2013-04-27 14:02:00,63.0,31.1,-100.00,NW,309,2.0,6.0,30,0.00,,,0.00,meteohub,2013-04-27 18:02:00,
2013-04-27 14:07:00,64.8,33.4,-100.00,SE,139,3.0,7.0,31,0.00,,,0.00,meteohub,2013-04-27 18:07:00,
2013-04-27 14:12:00,64.9,34.3,-100.00,South,188,2.0,7.0,32,0.00,,,0.00,meteohub,2013-04-27 18:12:00,
2013-04-27 14:17:00,64.4,30.6,-100.00,SW,223,1.0,7.0,28,0.00,,,0.00,meteohub,2013-04-27 18:17:00,
2013-04-27 14:22:00,65.7,34.2,-100.00,West,264,0.0,8.0,31,0.00,,,0.00,meteohub,2013-04-27 18:22:00,
2013-04-27 14:27:00,66.6,35.1,-100.00,NNE,15,6.0,8.0,31,0.00,,,0.00,meteohub,2013-04-27 18:27:00,
2013-04-27 14:32:00,65.8,33.6,-100.00,East,101,4.0,8.0,30,0.00,,,0.00,meteohub,2013-04-27 18:32:00,
2013-04-27 14:37:00,67.1,34.7,-100.00,SE,136,1.0,9.0,30,0.00,,,0.00,meteohub,2013-04-27 18:37:00,
2013-04-27 14:42:00,66.9,32.7,-100.00,NNE,12,1.0,9.0,28,0.00,,,0.00,meteohub,2013-04-27 18:42:00,
2013-04-27 14:47:00,67.5,34.9,-100.00,NNE,25,1.0,9.0,30,0.00,,,0.00,meteohub,2013-04-27 18:47:00,
2013-04-27 14:52:00,65.8,33.6,-100.00,NNE,25,0.0,9.0,30,0.00,,,0.00,meteohub,2013-04-27 18:52:00,
2013-04-27 14:57:00,67.5,34.9,-100.00,ESE,119,0.0,8.0,30,0.00,,,0.00,meteohub,2013-04-27 18:57:00,
2013-04-27 15:02:00,65.8,32.7,-100.00,SE,136,0.0,8.0,29,0.00,,,0.00,meteohub,2013-04-27 19:02:00,
2013-04-27 15:07:00,66.2,30.4,-100.00,WNW,300,3.0,7.0,26,0.00,,,0.00,meteohub,2013-04-27 19:07:00,
2013-04-27 15:12:00,65.7,31.6,-100.00,NW,306,0.0,7.0,28,0.00,,,0.00,meteohub,2013-04-27 19:12:00,
2013-04-27 15:17:00,67.5,32.4,-100.00,West,275,4.0,6.0,27,0.00,,,0.00,meteohub,2013-04-27 19:17:00,
2013-04-27 15:22:00,66.2,31.3,-100.00,WNW,284,0.0,6.0,27,0.00,,,0.00,meteohub,2013-04-27 19:22:00,
2013-04-27 15:27:00,67.8,33.4,-100.00,NNE,29,3.0,6.0,28,0.00,,,0.00,meteohub,2013-04-27 19:27:00,
2013-04-27 15:32:00,67.1,30.0,-100.00,NE,53,0.0,6.0,25,0.00,,,0.00,meteohub,2013-04-27 19:32:00,
2013-04-27 15:37:00,67.6,32.5,-100.00,NNE,16,0.0,6.0,27,0.00,,,0.00,meteohub,2013-04-27 19:37:00,
2013-04-27 15:42:00,66.2,31.3,-100.00,NNE,18,1.0,6.0,27,0.00,,,0.00,meteohub,2013-04-27 19:42:00,
2013-04-27 15:47:00,65.8,28.9,-100.00,NE,42,0.0,6.0,25,0.00,,,0.00,meteohub,2013-04-27 19:47:00,
2013-04-27 15:52:00,66.9,31.8,-100.00,North,351,0.0,6.0,27,0.00,,,0.00,meteohub,2013-04-27 19:52:00,
2013-04-27 15:57:00,67.5,31.5,-100.00,East,81,1.0,6.0,26,0.00,,,0.00,meteohub,2013-04-27 19:57:00,
2013-04-27 16:02:00,67.1,32.9,-100.00,NW,309,0.0,6.0,28,0.00,,,0.00,meteohub,2013-04-27 20:02:00,
2013-04-27 16:07:00,66.9,31.8,-100.00,North,352,2.0,5.0,27,0.00,,,0.00,meteohub,2013-04-27 20:07:00,
2013-04-27 16:12:00,66.6,31.5,-100.00,NE,54,1.0,5.0,27,0.00,,,0.00,meteohub,2013-04-27 20:12:00,
2013-04-27 16:17:00,66.6,31.5,-100.00,NNE,19,1.0,6.0,27,0.00,,,0.00,meteohub,2013-04-27 20:17:00,
2013-04-27 16:22:00,66.9,30.9,-100.00,ENE,71,0.0,6.0,26,0.00,,,0.00,meteohub,2013-04-27 20:22:00,
2013-04-27 16:27:00,66.9,30.9,-100.00,NE,42,0.0,5.0,26,0.00,,,0.00,meteohub,2013-04-27 20:27:00,
2013-04-27 16:32:00,67.8,33.4,-100.00,NE,37,0.0,4.0,28,0.00,,,0.00,meteohub,2013-04-27 20:32:00,
2013-04-27 16:37:00,68.5,33.3,-100.00,NE,37,0.0,5.0,27,0.00,,,0.00,meteohub,2013-04-27 20:37:00,
2013-04-27 16:42:00,68.7,31.5,-100.00,NW,322,0.0,5.0,25,0.00,,,0.00,meteohub,2013-04-27 20:42:00,
2013-04-27 16:47:00,67.8,29.7,-100.00,SSE,151,1.0,2.0,24,0.00,,,0.00,meteohub,2013-04-27 20:47:00,
2013-04-27 16:52:00,68.7,32.4,-100.00,West,271,0.0,4.0,26,0.00,,,0.00,meteohub,2013-04-27 20:52:00,
2013-04-27 16:57:00,66.9,31.8,-100.00,SSE,156,0.0,4.0,27,0.00,,,0.00,meteohub,2013-04-27 20:57:00,
2013-04-27 17:02:00,67.1,30.0,-100.00,NNW,334,2.0,5.0,25,0.00,,,0.00,meteohub,2013-04-27 21:02:00,
2013-04-27 17:07:00,66.6,33.3,-100.00,NNW,334,0.0,5.0,29,0.00,,,0.00,meteohub,2013-04-27 21:07:00,
2013-04-27 17:12:00,66.6,34.2,-100.00,NNW,334,0.0,5.0,30,0.00,,,0.00,meteohub,2013-04-27 21:12:00,
2013-04-27 17:17:00,67.5,32.4,-100.00,NNW,334,0.0,4.0,27,0.00,,,0.00,meteohub,2013-04-27 21:17:00,
2013-04-27 17:22:00,66.6,34.2,-100.00,NNW,334,0.0,3.0,30,0.00,,,0.00,meteohub,2013-04-27 21:22:00,
2013-04-27 17:27:00,65.7,33.4,-100.00,NNW,334,0.0,0.0,30,0.00,,,0.00,meteohub,2013-04-27 21:27:00,
2013-04-27 17:32:00,65.8,31.8,-100.00,NNW,334,0.0,0.0,28,0.00,,,0.00,meteohub,2013-04-27 21:32:00,
2013-04-27 17:37:00,65.3,30.4,-100.00,NNW,334,0.0,0.0,27,0.00,,,0.00,meteohub,2013-04-27 21:37:00,
2013-04-27 17:42:00,65.8,34.3,-100.00,NNW,334,0.0,0.0,31,0.00,,,0.00,meteohub,2013-04-27 21:42:00,
2013-04-27 17:47:00,64.8,33.4,-100.00,NNW,334,0.0,0.0,31,0.00,,,0.00,meteohub,2013-04-27 21:47:00,
2013-04-27 17:52:00,64.4,29.7,-100.00,NNW,334,0.0,0.0,27,0.00,,,0.00,meteohub,2013-04-27 21:52:00,
2013-04-27 17:57:00,65.3,33.1,-100.00,NNW,334,0.0,0.0,30,0.00,,,0.00,meteohub,2013-04-27 21:57:00,
2013-04-27 18:02:00,66.6,33.3,-100.00,NNW,334,0.0,0.0,29,0.00,,,0.00,meteohub,2013-04-27 22:02:00,
2013-04-27 18:07:00,66.2,33.1,-100.00,NNW,334,0.0,0.0,29,0.00,,,0.00,meteohub,2013-04-27 22:07:00,
2013-04-27 18:12:00,64.8,31.8,-100.00,NNW,334,0.0,0.0,29,0.00,,,0.00,meteohub,2013-04-27 22:12:00,
2013-04-27 18:17:00,65.3,32.2,-100.00,NNW,334,0.0,0.0,29,0.00,,,0.00,meteohub,2013-04-27 22:17:00,
2013-04-27 18:22:00,64.2,33.8,-100.00,SE,135,0.0,0.0,32,0.00,,,0.00,meteohub,2013-04-27 22:22:00,
2013-04-27 18:31:00,64.9,34.3,-100.00,South,171,0.0,6.0,32,0.00,,,0.00,meteohub,2013-04-27 22:31:00,
2013-04-27 18:36:00,65.3,34.7,-100.00,SE,143,1.0,6.0,32,0.00,,,0.00,meteohub,2013-04-27 22:36:00,
2013-04-27 18:42:00,64.9,34.3,-100.00,ESE,123,5.0,6.0,32,0.00,,,0.00,meteohub,2013-04-27 22:42:00,
2013-04-27 18:47:00,63.7,34.0,-100.00,South,171,3.0,7.0,33,0.00,,,0.00,meteohub,2013-04-27 22:47:00,
2013-04-27 18:52:00,62.4,33.6,-100.00,SW,234,0.0,8.0,34,0.00,,,0.00,meteohub,2013-04-27 22:52:00,
2013-04-27 18:57:00,63.3,35.2,-100.00,SE,140,0.0,8.0,35,0.00,,,0.00,meteohub,2013-04-27 22:57:00,
2013-04-27 19:02:00,62.4,35.1,-100.00,SSW,209,0.0,8.0,36,0.00,,,0.00,meteohub,2013-04-27 23:02:00,
2013-04-27 19:07:00,62.4,35.8,-100.00,SSW,202,0.0,11.0,37,0.00,,,0.00,meteohub,2013-04-27 23:07:00,
2013-04-27 19:12:00,61.3,35.6,-100.00,SW,215,1.0,11.0,38,0.00,,,0.00,meteohub,2013-04-27 23:12:00,
2013-04-27 19:17:00,59.9,35.6,-100.00,SW,229,2.0,11.0,40,0.00,,,0.00,meteohub,2013-04-27 23:17:00,
2013-04-27 19:22:00,58.6,35.6,-100.00,SE,144,0.0,8.0,42,0.00,,,0.00,meteohub,2013-04-27 23:22:00,
2013-04-27 19:27:00,57.9,35.6,-100.00,SE,144,0.0,6.0,43,0.00,,,0.00,meteohub,2013-04-27 23:27:00,
2013-04-27 19:32:00,58.6,36.1,-100.00,SSE,157,2.0,6.0,43,0.00,,,0.00,meteohub,2013-04-27 23:32:00,
2013-04-27 19:37:00,59.0,36.5,-100.00,SSW,209,0.0,6.0,43,0.00,,,0.00,meteohub,2013-04-27 23:37:00,
2013-04-27 19:42:00,57.9,36.1,-100.00,SSE,165,0.0,6.0,44,0.00,,,0.00,meteohub,2013-04-27 23:42:00,
2013-04-27 19:47:00,57.2,36.0,-100.00,SW,217,1.0,4.0,45,0.00,,,0.00,meteohub,2013-04-27 23:47:00,
2013-04-27 19:52:00,57.2,36.0,-100.00,SW,217,0.0,4.0,45,0.00,,,0.00,meteohub,2013-04-27 23:52:00,
2013-04-27 19:57:00,57.7,36.5,-100.00,SW,217,0.0,3.0,45,0.00,,,0.00,meteohub,2013-04-27 23:57:00,
2013-04-27 20:02:00,57.2,36.0,-100.00,SW,217,0.0,3.0,45,0.00,,,0.00,meteohub,2013-04-28 00:02:00,
2013-04-27 20:08:00,56.8,36.3,-100.00,SW,217,0.0,2.0,46,0.00,,,0.00,meteohub,2013-04-28 00:08:00,
2013-04-27 20:13:00,56.8,36.3,-100.00,SW,217,0.0,2.0,46,0.00,,,0.00,meteohub,2013-04-28 00:13:00,
2013-04-27 20:18:00,56.8,36.3,-100.00,SW,217,0.0,1.0,46,0.00,,,0.00,meteohub,2013-04-28 00:18:00,
2013-04-27 20:23:00,56.1,36.1,-100.00,SW,217,0.0,1.0,47,0.00,,,0.00,meteohub,2013-04-28 00:23:00,
2013-04-27 20:28:00,56.1,36.1,-100.00,SW,217,0.0,0.0,47,0.00,,,0.00,meteohub,2013-04-28 00:28:00,
2013-04-27 20:33:00,55.2,34.9,-100.00,SW,217,0.0,0.0,46,0.00,,,0.00,meteohub,2013-04-28 00:33:00,
2013-04-27 20:38:00,55.6,35.1,-100.00,SSW,210,0.0,0.0,46,0.00,,,0.00,meteohub,2013-04-28 00:38:00,
2013-04-27 20:43:00,54.5,34.2,-100.00,SSW,210,0.0,0.0,46,0.00,,,0.00,meteohub,2013-04-28 00:43:00,
2013-04-27 20:48:00,55.6,35.6,-100.00,SSW,210,0.0,4.0,47,0.00,,,0.00,meteohub,2013-04-28 00:48:00,
2013-04-27 20:53:00,54.7,34.9,-100.00,SSW,210,0.0,0.0,47,0.00,,,0.00,meteohub,2013-04-28 00:53:00,
2013-04-27 20:58:00,54.1,34.9,-100.00,SSW,210,0.0,0.0,48,0.00,,,0.00,meteohub,2013-04-28 00:58:00,
2013-04-27 21:03:00,54.0,34.7,-100.00,SSW,210,0.0,0.0,48,0.00,,,0.00,meteohub,2013-04-28 01:03:00,
2013-04-27 21:08:00,53.6,35.4,-100.00,SSW,210,0.0,0.0,50,0.00,,,0.00,meteohub,2013-04-28 01:08:00,
2013-04-27 21:13:00,54.0,35.2,-100.00,SSW,210,0.0,0.0,49,0.00,,,0.00,meteohub,2013-04-28 01:13:00,
2013-04-27 21:19:00,53.1,35.4,-100.00,SSW,210,0.0,0.0,51,0.00,,,0.00,meteohub,2013-04-28 01:19:00,
2013-04-27 21:24:00,52.3,34.7,-100.00,SSW,210,0.0,0.0,51,0.00,,,0.00,meteohub,2013-04-28 01:24:00,
2013-04-27 21:29:00,53.1,35.4,-100.00,SSW,210,0.0,0.0,51,0.00,,,0.00,meteohub,2013-04-28 01:29:00,
2013-04-27 21:34:00,52.9,35.8,-100.00,SSW,210,0.0,0.0,52,0.00,,,0.00,meteohub,2013-04-28 01:34:00,
2013-04-27 21:39:00,52.5,36.3,-100.00,WNW,296,0.0,0.0,54,0.00,,,0.00,meteohub,2013-04-28 01:39:00,
2013-04-27 21:44:00,52.5,36.9,-100.00,WNW,296,0.0,3.0,55,0.00,,,0.00,meteohub,2013-04-28 01:44:00,
2013-04-27 21:49:00,52.5,36.9,-100.00,WNW,296,0.0,3.0,55,0.00,,,0.00,meteohub,2013-04-28 01:49:00,
2013-04-27 21:54:00,51.3,35.6,-100.00,WNW,296,0.0,0.0,55,0.00,,,0.00,meteohub,2013-04-28 01:54:00,
2013-04-27 21:59:00,51.6,36.0,-100.00,WNW,296,0.0,0.0,55,0.00,,,0.00,meteohub,2013-04-28 01:59:00,
2013-04-27 22:05:00,51.3,36.5,-100.00,WNW,296,0.0,0.0,57,0.00,,,0.00,meteohub,2013-04-28 02:05:00,
2013-04-27 22:10:00,51.3,37.0,-100.00,WNW,296,0.0,0.0,58,0.00,,,0.00,meteohub,2013-04-28 02:10:00,
2013-04-27 22:15:00,50.7,36.9,-100.00,WNW,296,0.0,0.0,59,0.00,,,0.00,meteohub,2013-04-28 02:15:00,
2013-04-27 22:20:00,50.7,37.4,-100.00,WNW,296,0.0,0.0,60,0.00,,,0.00,meteohub,2013-04-28 02:20:00,
2013-04-27 22:25:00,50.2,36.9,-100.00,WNW,296,0.0,0.0,60,0.00,,,0.00,meteohub,2013-04-28 02:25:00,
2013-04-27 22:30:00,51.1,38.1,-100.00,WNW,296,0.0,0.0,61,0.00,,,0.00,meteohub,2013-04-28 02:30:00,
2013-04-27 22:35:00,50.2,37.6,-100.00,WNW,296,0.0,0.0,62,0.00,,,0.00,meteohub,2013-04-28 02:35:00,
2013-04-27 22:40:00,49.3,36.9,-100.00,WNW,296,0.0,0.0,62,0.00,,,0.00,meteohub,2013-04-28 02:40:00,
2013-04-27 22:45:00,50.0,37.9,-100.00,WNW,296,0.0,0.0,63,0.00,,,0.00,meteohub,2013-04-28 02:45:00,
2013-04-27 22:50:00,49.5,37.0,-100.00,WNW,296,0.0,0.0,62,0.00,,,0.00,meteohub,2013-04-28 02:50:00,
2013-04-27 22:55:00,50.2,38.1,-100.00,WSW,240,0.0,0.0,63,0.00,,,0.00,meteohub,2013-04-28 02:55:00,
2013-04-27 23:00:00,49.6,37.9,-100.00,NNW,333,0.0,4.0,64,0.00,,,0.00,meteohub,2013-04-28 03:00:00,
2013-04-27 23:05:00,49.5,37.8,-100.00,West,277,0.0,4.0,64,0.00,,,0.00,meteohub,2013-04-28 03:05:00,
2013-04-27 23:10:00,49.5,37.8,-100.00,West,277,0.0,4.0,64,0.00,,,0.00,meteohub,2013-04-28 03:10:00,
2013-04-27 23:16:00,49.6,37.9,-100.00,West,277,0.0,4.0,64,0.00,,,0.00,meteohub,2013-04-28 03:16:00,
2013-04-27 23:21:00,50.0,38.3,-100.00,West,277,0.0,4.0,64,0.00,,,0.00,meteohub,2013-04-28 03:21:00,
2013-04-27 23:26:00,49.3,37.6,-100.00,West,277,0.0,0.0,64,0.00,,,0.00,meteohub,2013-04-28 03:26:00,
2013-04-27 23:31:00,49.3,37.6,-100.00,West,277,0.0,0.0,64,0.00,,,0.00,meteohub,2013-04-28 03:31:00,
2013-04-27 23:36:00,48.4,36.7,-100.00,West,277,0.0,0.0,64,0.00,,,0.00,meteohub,2013-04-28 03:36:00,
2013-04-27 23:41:00,48.0,36.9,-100.00,West,277,0.0,0.0,65,0.00,,,0.00,meteohub,2013-04-28 03:41:00,
2013-04-27 23:46:00,48.2,37.0,-100.00,WNW,295,0.0,0.0,65,0.00,,,0.00,meteohub,2013-04-28 03:46:00,
2013-04-27 23:51:00,48.4,36.7,-100.00,WNW,295,0.0,2.0,64,0.00,,,0.00,meteohub,2013-04-28 03:51:00,
2013-04-27 23:56:00,48.0,36.9,-100.00,WNW,295,0.0,2.0,65,0.00,,,0.00,meteohub,2013-04-28 03:56:00,